Location: Carrières
(48.9495°N, 2.0407°E)
Time: 10:21:36
(UTC+00:00)

Transit 2A Rocket - Pass Details

Date: 25 April 2024
Orbit: 584 x 909 km, 66.7° (Epoch: 25 May)

Event Time Altitude Azimuth Distance (km) Brightness Sun altitude
Rises 11:19:41 0° 233° (SW) 2,906 8.2 54.0°
Reaches altitude 10° 11:21:57 10° 240° (WSW) 2,041 7.5 54.0°
Maximum altitude 11:26:24 46° 314° (NW) 919 5.7 54.2°
Drops below altitude 10° 11:31:17 10° 28° (NNE) 2,244 7.2 54.3°
Sets 11:33:53 0° 34° (NE) 3,229 8.0 54.3°
